Weather History for FBMN - March, 2013

Change the Weather History Date:

Sunday, March 31, 2013

  Actual Average Record
Temperature  
Mean Temperature 79 °F -  
Max Temperature 92 °F 86 °F - (-1)
Min Temperature 66 °F 61 °F - (-1)
Cooling Degree Days 14    
Growing Degree Days 29 (Base 50)    
Moisture  
Dew Point 58 °F    
Average Humidity 44    
Maximum Humidity 68    
Minimum Humidity 23    
Precipitation  
Precipitation 0.00 in - - ()
Sea Level Pressure  
Sea Level Pressure 30.04 in    
Wind  
Wind Speed 8 mph ()    
Max Wind Speed 20 mph    
Max Gust Speed -    
Visibility 6.1 miles    
Events      
Averages and records for this station are not official NWS values.
T = Trace of Precipitation, MM = Missing Value Source: Averaged Metar Reports

Daily Weather History Graph

Daily Weather History Graph

Search for Another Location

Airport or City:

Trip Planner

Search our weather history database for the weather conditions in past years. The results will help you decide how hot, cold, wet, or windy it might be!

Date:

Astronomy

Mar. 31, 2013 Rise Set
Actual Time 6:33 AM CAT 6:27 PM CAT
Civil Twilight 6:11 AM CAT 6:49 PM CAT
Nautical Twilight 5:45 AM CAT 7:15 PM CAT
Astronomical Twilight 5:19 AM CAT 7:40 PM CAT
Moon 9:53 PM CAT (3/31) 10:24 AM CAT (3/31)
Length of Visible Light 12h 38m
Length of Day
11h 54m
Waning Gibbous, 80% of the Moon is Illuminated
Mar 31
Waning Gibbous
Apr 3
Last Quarter
Apr 10
New
Apr 18
First Quarter
Apr 25
Full

Hourly Weather History & Observations

Time (CAT) Temp. Heat Index Dew Point Humidity Pressure Visibility Wind Dir Wind Speed Gust Speed Precip Events Conditions
5:00 AM 69.8 °F - 50.0 °F 49% 30.01 in - NE 3.5 mph - N/A   Clear
6:00 AM 69.8 °F - 59.0 °F 68% 30.04 in - NE 4.6 mph - N/A   Clear
7:00 AM 68.0 °F - 57.2 °F 68% 30.06 in - East 10.4 mph - N/A   Clear
8:00 AM 71 °F - 58 °F 55%  in 6 mi ENE 13.8 mph - -   Partly Cloudy
8:00 AM 71.6 °F - 59.0 °F 64% 30.06 in - ENE 13.8 mph - N/A   Clear
9:00 AM 77.0 °F - 60.8 °F 57% 30.09 in - ENE 16.1 mph - N/A   Clear
10:00 AM 82.4 °F 82.9 °F 60.8 °F 48% 30.09 in - NE 15.0 mph - N/A   Clear
11:00 AM 84.2 °F 85.0 °F 62.6 °F 48% 30.09 in - NNE 13.8 mph - N/A   Clear
12:00 PM 87.8 °F 87.6 °F 60.8 °F 40% 30.06 in 6.2 mi NE 10.4 mph - N/A   Partly Cloudy
1:00 PM 89.6 °F 88.9 °F 59.0 °F 36% 30.04 in 6.2 mi NE 12.7 mph - N/A   Partly Cloudy
2:00 PM 91 °F - 58 °F 23%  in 6 mi ENE 10.4 mph - -   Partly Cloudy
2:00 PM 91.4 °F 90.7 °F 59.0 °F 34% 30.01 in 6.2 mi ENE 10.4 mph - N/A   Partly Cloudy
3:00 PM 93.2 °F 92.6 °F 59.0 °F 32% 29.98 in 6.2 mi NNE 12.7 mph - N/A   Scattered Clouds
4:00 PM 93.2 °F 91.9 °F 57.2 °F 30% 29.98 in 6.2 mi NE 15.0 mph - N/A   Scattered Clouds
5:00 PM 91.4 °F 90.7 °F 59.0 °F 34% 29.98 in 6.2 mi NNE 19.6 mph - N/A   Scattered Clouds
6:00 PM 91.4 °F 89.9 °F 57.2 °F 31% 29.98 in 6.2 mi NNE 6.9 mph - N/A   Partly Cloudy
7:00 PM 87.8 °F 87.1 °F 59.0 °F 38% 30.01 in 6.2 mi NNE 3.5 mph - N/A   Partly Cloudy
8:00 PM 85 °F - 60 °F 33%  in 6 mi NNE 2.3 mph - -   Scattered Clouds
8:00 PM 84.2 °F 84.4 °F 60.8 °F 45% 30.04 in - Variable 2.3 mph - N/A   Clear
9:00 PM 80.6 °F 81.1 °F 59.0 °F 48% 30.04 in - East 6.9 mph - N/A   Clear
10:00 PM 80.6 °F 80.5 °F 55.4 °F 42% 30.06 in - East 6.9 mph - N/A   Clear
11:00 PM 77.0 °F - 53.6 °F 44% 30.06 in - ENE 8.1 mph - N/A   Clear